Header for Extended Forecast Station List Page

Search by: ID | Name | Date | Parm | Value | Avg | % Avg
Sort by: ID | Name | Date | Parm | Value | Avg | % Avg

Enter search or view all records.

Click on id for station plot
#IDNameDateParmValueAvg% Avg
0LYDM8KOOTENAI-LIBBY DAM12-06-2021INFLOW (KAF)1142843135
1LEOI1KOOTENAI-AT LEONIA12-06-2021DISCHARGE (KAF)32452252144
2BFEI1KOOTENAI-AT BONNERS FERRY12-06-2021STAGE (FT)MMM
3FCFM8NF FLATHEAD-NEAR COLUMBIA FALLS12-06-2021DISCHARGE (KAF)402190212
4WGCM8MF FLATHEAD-NEAR WEST GLACIER12-06-2021DISCHARGE (KAF)245171143
5HHWM8SF FLATHEAD-HUNGRY HORSE DAM12-06-2021INFLOW (KAF)281271104
6CFMM8FLATHEAD-AT COLUMBIA FALLS12-06-2021DISCHARGE (KAF)1279985130
7DLGM8CLARK FORK-AT DEER LODGE12-06-2021DISCHARGE (KAF)5452104
8DRMM8CLARK FORK-NR DRUMMOND12-06-2021DISCHARGE (KAF)11712891
9RCCM8ROCK CREEK-NEAR CLINTON12-06-2021DISCHARGE (KAF)4847103
10BONM8BLACKFOOT-NEAR BONNER12-06-2021DISCHARGE (KAF)12414983
11ABOM8CLARK FORK-ABOVE MISSOULA12-06-2021DISCHARGE (KAF)30134986
12BITM8BITTERROOT-NEAR MISSOULA12-06-2021DISCHARGE (KAF)236219107
13BELM8CLARK FORK-BELOW MISSOULA12-06-2021DISCHARGE (KAF)53758092
14STRM8ST. REGIS-NEAR ST. REGIS12-06-2021DISCHARGE (KAF)335659
15SRGM8CLARK FORK-AT ST REGIS12-06-2021DISCHARGE (KAF)67478486
16KERM8FLATHEAD-SELI’Š KSANKA QLISPE’ DAM12-06-2021INFLOW (KAF)14481453100
17NOXM8CLARK FORK-NOXON RAPIDS DAM12-06-2021INFLOW (KAF)33323150106
18CABI1CLARK FORK-CABINET GORGE DAM12-06-2021INFLOW (KAF)36793622102
19PRTI1PRIEST-NEAR PRIEST RIVER12-06-2021DISCHARGE (KAF)20625481
20ALFW1PEND OREILLE-ALBENI FALLS DAM12-06-2021INFLOW (KAF)4106414399
21HOPI1PEND OREILLE-PEND OREILLE LAKE NR HOPE12-06-2021LAKE ELEVATION (FT)MMM
22COEI1COEUR D ALENE-COEUR D ALENE LAKE12-06-2021INFLOW (KAF)1095134382
23SPOW1SPOKANE-AT SPOKANE12-06-2021DISCHARGE (KAF)1034143672
24LLKW1SPOKANE-AT LONGLAKE12-06-2021INFLOW (KAF)1326171977
25SATI1ST MARIES-NEAR SANTA12-06-2021DISCHARGE (KAF)298236
26SJMI1ST JOE-AT ST MARIES12-06-2021STAGE (FT)MMM
27CIBW1COLUMBIA-AT INTL BOUNDARY12-06-2021DISCHARGE (KAF)2073819652106
28LAUW1KETTLE-AT LAURIER12-06-2021DISCHARGE (KAF)16818491
29GCDW1COLUMBIA-GRAND COULEE DAM12-06-2021INFLOW (KAF)2232721610103
30CHJW1COLUMBIA-CHIEF JOSEPH DAM12-06-2021INFLOW (KAF)2447823863103
31TONW1OKANOGAN-NEAR TONASKET12-06-2021DISCHARGE (KAF)406322126
32PATW1METHOW-NEAR PATEROS12-06-2021DISCHARGE (KAF)138113122
33WELW1COLUMBIA-WELLS DAM12-06-2021INFLOW (KAF)2503424522102
34CHDW1CHELAN-LAKE CHELAN DAM12-06-2021INFLOW (KAF)348211165
35RRHW1COLUMBIA-ROCKY REACH DAM12-06-2021INFLOW (KAF)2578424937103
36ARDW1ENTIAT-NEAR ARDENVOIR12-06-2021DISCHARGE (KAF)4127148
37PESW1WENATCHEE-AT PESHASTIN12-06-2021DISCHARGE (KAF)435349125
38WANW1COLUMBIA-WANAPUM DAM12-06-2021INFLOW (KAF)2624825553103
39PRWW1COLUMBIA-PRIEST RAPIDS DAM12-06-2021INFLOW (KAF)2626125629102
40KEDW1YAKIMA-KEECHELUS LAKE12-06-2021INFLOW (KAF)525397
41KADW1KACHESS-KACHESS DAM12-06-2021INFLOW (KAF)5252100
42EASW1YAKIMA-AT EASTON12-06-2021DISCHARGE (KAF)738486
43CLUW1CLE ELUM-CLE ELUM LAKE12-06-2021INFLOW (KAF)10111985
44TNAW1TEANAWAY-BELOW FORKS12-06-2021DISCHARGE (KAF)6565101
45UMTW1YAKIMA-AT UMTANUM12-06-2021DISCHARGE (KAF)30436184
46BUDW1BUMPING-BUMPING LAKE DAM12-06-2021INFLOW (KAF)284070
47CLFW1NACHES-NEAR CLIFFDEL12-06-2021DISCHARGE (KAF)9313668
48RILW1TIETON-RIMROCK LAKE NEAR RIMROCK12-06-2021INFLOW (KAF)577873
49NACW1NACHES-NEAR NACHES12-06-2021DISCHARGE (KAF)8719046
50PARW1YAKIMA-NEAR PARKER12-06-2021DISCHARGE (KAF)44759475
51KIOW1YAKIMA-AT KIONA12-06-2021DISCHARGE (KAF)61185971
52IPDI1HENRYS FORK-ISLAND PARK DAM12-06-2021INFLOW (KAF)7310570
53CHEI1FALL RIVER-NEAR CHESTER12-06-2021DISCHARGE (KAF)9611385
54ANTI1HENRYS FORK-AT ST. ANTHONY12-06-2021DISCHARGE (KAF)31038281
55TEAI1TETON-NEAR ST. ANTHONY12-06-2021DISCHARGE (KAF)779978
56REXI1HENRYS FORK-AT REXBURG12-06-2021DISCHARGE (KAF)36743784
57JLKW4SNAKE-JACKSON LAKE AT DAM12-06-2021INFLOW (KAF)9111877
58JKSW4SNAKE-NEAR JACKSON12-06-2021DISCHARGE (KAF)24331777
59ALPW4SNAKE-NEAR ALPINE12-06-2021DISCHARGE (KAF)30137780
60PLDI1SF SNAKE-PALISADES DAM12-06-2021INFLOW (KAF)45859477
61HEII1SNAKE-NEAR HEISE12-06-2021DISCHARGE (KAF)39539999
62RIDI1WILLOW CREEK-RIRIE DAM12-06-2021INFLOW (KAF)91561
63SIFI1SNAKE-AB EAGLE ROCK NR IDAHO FALLS12-06-2021DISCHARGE (KAF)60768489
64SHYI1SNAKE-NEAR SHELLEY12-06-2021DISCHARGE (KAF)58368785
65SNAI1SNAKE-AT BLACKFOOT12-06-2021DISCHARGE (KAF)50560084
66BFTI1SNAKE-NEAR BLACKFOOT12-06-2021DISCHARGE (KAF)50558786
67PIHI1PORTNEUF-AT POCATELLO12-06-2021DISCHARGE (KAF)425773
68AFRI1SNAKE-AMERICAN FALLS RESERVOIR12-06-2021INFLOW (KAF)1146121295
69MILI1SNAKE-AT MILNER12-06-2021DISCHARGE (KAF)M54M
70HOTI1BRUNEAU-NEAR HOT SPRINGS12-06-2021DISCHARGE (KAF)263966
71SWAI1SNAKE-BELOW SWAN FALLS12-06-2021DISCHARGE (KAF)1712187891
72HWRI1BIG LOST-AT HOWELL RANCH NEAR CHILLY12-06-2021DISCHARGE (KAF)151882
73MACI1BIG LOST-MACKAY RESERVOIR NEAR MACKAY12-06-2021INFLOW (KAF)273871
74HALI1BIG WOOD-AT HAILEY12-06-2021DISCHARGE (KAF)244061
75MAGI1BIG WOOD-MAGIC DAM12-06-2021INFLOW (KAF)203753
76LWRI1LITTLE WOOD-LITTLE WOOD DAM12-06-2021INFLOW (KAF)141781
77OWYO3OWYHEE-OWYHEE DAM12-06-2021INFLOW (KAF)257173149
78ARAI1SF BOISE-ANDERSON RANCH DAM12-06-2021INFLOW (KAF)749776
79LUCI1BOISE-LUCKY PEAK DAM12-06-2021INFLOW (KAF)21322595
80BIGI1BOISE-AT GLENWOOD BRIDGE12-06-2021DISCHARGE (KAF)13466202
81PARI1BOISE-NEAR PARMA12-06-2021DISCHARGE (KAF)279198141
82WRMO3MALHEUR-WARM SPRINGS DAM12-06-2021INFLOW (KAF)314865
83BERO3MALHEUR-AGENCY VALLEY DAM12-06-2021INFLOW (KAF)202678
84BULO3BULLY CREEK-BULLY CREEK DAM12-06-2021INFLOW (KAF)205404
85CSDI1NF PAYETTE-CASCADE DAM12-06-2021INFLOW (KAF)8411772
86DEDI1DEADWOOD-NEAR LOWMAN12-06-2021INFLOW (KAF)142070
87EMMI1PAYETTE-NEAR EMMETT12-06-2021DISCHARGE (KAF)34439587
88WSRI1WEISER-NEAR WEISER12-06-2021DISCHARGE (KAF)20921697
89WEII1SNAKE-AT WEISER12-06-2021DISCHARGE (KAF)2827303393
90BRNI1SNAKE-BROWNLEE DAM12-06-2021INFLOW (KAF)3054328793
91WHBI1SALMON-AT WHITEBIRD12-06-2021DISCHARGE (KAF)937112483
92TRYO3GRANDE RONDE-TROY12-06-2021DISCHARGE (KAF)34956862
93ANAW1SNAKE-NEAR ANATONE12-06-2021DISCHARGE (KAF)4427585776
94ORFI1CLEARWATER-AT OROFINO12-06-2021DISCHARGE (KAF)825112573
95DWRI1NF CLEARWATER-DWORSHAK DAM12-06-2021INFLOW (KAF)88089399
96SPDI1CLEARWATER-AT SPALDING12-06-2021DISCHARGE (KAF)1449210369
97LGDW1SNAKE-LOWER GRANITE DAM12-06-2021INFLOW (KAF)5875813672
98LGSW1SNAKE-LITTLE GOOSE DAM12-06-2021INFLOW (KAF)5875817972
99LMNW1SNAKE-LOWER MONUMENTAL DAM12-06-2021INFLOW (KAF)6156833374
100IHDW1SNAKE-ICE HARBOR DAM12-06-2021INFLOW (KAF)6156836374
101TCHW1WALLA WALLA-NEAR TOUCHET12-06-2021DISCHARGE (KAF)14920872
102MCDW1COLUMBIA-MCNARY DAM12-06-2021INFLOW (KAF)332873509495
103GIBO3UMATILLA-NEAR GIBBON12-06-2021DISCHARGE (KAF)556091
104PDTO3UMATILLA-AT PENDLETON12-06-2021DISCHARGE (KAF)13415587
105MYKO3MCKAY CREEK-NEAR PILOT ROCK12-06-2021DISCHARGE (KAF)4038104
106UMAO3UMATILLA-NEAR UMATILLA12-06-2021DISCHARGE (KAF)14314797
107MONO3NF JOHN DAY-AT MONUMENT12-06-2021DISCHARGE (KAF)10927040
108SERO3JOHN DAY-AT SERVICE CK12-06-2021DISCHARGE (KAF)19142245
109JDAO3COLUMBIA-JOHN DAY DAM12-06-2021INFLOW (KAF)347973683594
110MODO3DESCHUTES-AT MOODY NR BIGGS12-06-2021DISCHARGE (KAF)1259143488
111TDAO3COLUMBIA-THE DALLES DAM12-06-2021INFLOW (KAF)352343750694
112PITW1KLICKITAT-NEAR PITT12-06-2021DISCHARGE (KAF)409392104
113HODO3HOOD-NEAR TUCKER BRIDGE12-06-2021DISCHARGE (KAF)295252117
114UNDW1WHITE SALMON-NEAR UNDERWOOD12-06-2021DISCHARGE (KAF)28729498
115BONO3COLUMBIA-BONNEVILLE DAM12-06-2021INFLOW (KAF)362173931592